Location: Arroyo Mobile Home Park
(34.3733°N, 119.3071°W)
Time: 08:49:28
(UTC+00:00)

Cosmos 2242 Rocket - Pass Details

Date: 03 August 2024
Orbit: 616 x 647 km, 82.5° (Epoch: 10 September)

Event Time Altitude Azimuth Distance (km) Brightness Sun altitude
Rises 12:06:18 0° 352° (N) 2,895 7.3 -12.6°
Reaches altitude 10° 12:08:31 10° 352° (N) 1,988 6.5 -12.2°
Maximum altitude 12:12:56 82° 265° (W) 631 3.5 -11.4°
Drops below altitude 10° 12:17:20 10° 177° (S) 1,989 5.9 -10.6°
Sets 12:19:34 0° 177° (S) 2,897 6.7 -10.2°
